User: anonymous   Login
Location: Houston
(29.7631°N, 95.3631°W)
Time: 06:08:46
(UTC-05:00)
Language:

CUTE-I - Orbit

View from above orbital plane
View from above orbital plane
View from above satellite
View from above satellite

Ground track
Ground track

The orbit data is extracted from the following two-line orbital elements,

1 27844U 03031E   19143.90329307 +.00000033 +00000-0 +34421-4 0  9997
2 27844 098.6844 152.5021 0011077 104.2694 255.9715 14.22177259824585
Epoch (UTC): 23 May 2019 21:40:44
Eccentricity: 0.0011077
inclination: 98.6844°
perigee height: 810 km
apogee height: 826 km
right ascension of ascending node: 152.5021°
argument of perigee: 104.2694°
revolutions per day: 14.22177259
mean anomaly at epoch: 255.9715°
orbit number at epoch: 82458

The dashed part of the orbit path shows where the satellite is in the earth's shadow,  

DLR